| time (UTC) | temp C | wind direction | speed KPH | gust KPH | rain 1hr cm | rain 24hr cm | rain mn cm | humidity % | barometer mb |
| 20260506043043 | 13 | 0 | 0.0 | 0.0 | 0.00 | 0.05 | 0.05 | 81 | 1017.5 |
| 20260506043003 | 13 | 0 | 0.0 | 0.0 | 0.00 | 0.05 | 0.05 | 82 | 1018.3 |
| 20260506042003 | 13 | 0 | 0.0 | 0.0 | 0.00 | 0.05 | 0.05 | 81 | 1018.2 |
| 20260506041545 | 13 | 0 | 0.0 | 0.0 | 0.00 | 0.05 | 0.05 | 81 | 1017.4 |
| 20260506041003 | 13 | 0 | 0.0 | 0.0 | 0.00 | 0.05 | 0.05 | 81 | 1018.1 |
| 20260506040047 | 13 | 0 | 0.0 | 0.0 | 0.00 | 0.05 | 0.05 | 80 | 1017.1 |
| 20260506040003 | 13 | 0 | 0.0 | 0.0 | 0.00 | 0.05 | 0.05 | 81 | 1017.9 |
| 20260506035004 | 13 | 343 | 1.6 | 8.0 | 0.00 | 0.05 | 0.05 | 80 | 1017.9 |
| 20260506034539 | 13 | 0 | 0.0 | 9.7 | 0.00 | 0.05 | 0.05 | 80 | 1017.0 |
| 20260506034003 | 13 | 352 | 1.6 | 9.7 | 0.00 | 0.05 | 0.05 | 80 | 1017.7 |
| 20260506033041 | 13 | 0 | 3.2 | 9.7 | 0.00 | 0.05 | 0.05 | 79 | 1016.6 |
| 20260506033004 | 13 | 340 | 3.2 | 9.7 | 0.00 | 0.05 | 0.05 | 80 | 1017.5 |
| 20260506032003 | 13 | 336 | 0.0 | 6.4 | 0.00 | 0.05 | 0.05 | 79 | 1017.5 |
| 20260506031544 | 13 | 0 | 1.6 | 6.4 | 0.00 | 0.05 | 0.05 | 79 | 1016.5 |
| 20260506031003 | 13 | 297 | 0.0 | 3.2 | 0.00 | 0.05 | 0.05 | 79 | 1017.4 |
| 20260506030044 | 13 | 0 | 1.6 | 6.4 | 0.00 | 0.05 | 0.05 | 79 | 1016.4 |
| 20260506030003 | 14 | 320 | 1.6 | 6.4 | 0.00 | 0.05 | 0.05 | 79 | 1017.3 |
| 20260506025003 | 14 | 315 | 3.2 | 8.0 | 0.00 | 0.05 | 0.05 | 78 | 1017.1 |
| 20260506024545 | 14 | 0 | 1.6 | 8.0 | 0.00 | 0.05 | 0.05 | 77 | 1016.2 |
| 20260506024003 | 15 | 329 | 3.2 | 8.0 | 0.00 | 0.05 | 0.05 | 77 | 1017.0 |
| 20260506023055 | 15 | 329 | 3.2 | 9.7 | 0.00 | 0.05 | 0.05 | 75 | 1016.0 |
| 20260506023003 | 15 | 325 | 3.2 | 8.0 | 0.00 | 0.05 | 0.05 | 76 | 1016.8 |
| 20260506022003 | 15 | 330 | 4.8 | 11.3 | 0.00 | 0.05 | 0.05 | 76 | 1016.8 |
| 20260506021550 | 15 | 289 | 4.8 | 14.5 | 0.00 | 0.05 | 0.05 | 75 | 1016.0 |
| 20260506021003 | 15 | 346 | 6.4 | 14.5 | 0.00 | 0.05 | 0.05 | 74 | 1016.8 |
| 20260506020047 | 15 | 336 | 3.2 | 12.9 | 0.00 | 0.05 | 0.05 | 74 | 1015.9 |
| 20260506020024 | 15 | 341 | 4.8 | 12.9 | 0.00 | 0.05 | 0.05 | 75 | 1016.8 |
| 20260506015003 | 15 | 330 | 4.8 | 9.7 | 0.00 | 0.05 | 0.05 | 74 | 1016.8 |
| 20260506014545 | 15 | 319 | 3.2 | 9.7 | 0.00 | 0.05 | 0.05 | 73 | 1015.9 |
| 20260506014003 | 16 | 336 | 4.8 | 11.3 | 0.00 | 0.05 | 0.05 | 74 | 1016.8 |
| 20260506013043 | 15 | 325 | 3.2 | 9.7 | 0.00 | 0.05 | 0.05 | 72 | 1016.0 |
| 20260506013003 | 16 | 324 | 4.8 | 9.7 | 0.00 | 0.05 | 0.05 | 73 | 1016.9 |
| 20260506012003 | 16 | 332 | 4.8 | 12.9 | 0.00 | 0.05 | 0.05 | 71 | 1016.7 |
| 20260506011545 | 16 | 335 | 3.2 | 11.3 | 0.00 | 0.05 | 0.05 | 71 | 1015.8 |
| 20260506011003 | 16 | 340 | 4.8 | 11.3 | 0.00 | 0.05 | 0.05 | 71 | 1016.7 |
| 20260506010051 | 16 | 332 | 3.2 | 19.3 | 0.00 | 0.05 | 0.05 | 70 | 1015.8 |
| 20260506010003 | 16 | 330 | 4.8 | 19.3 | 0.00 | 0.05 | 0.05 | 70 | 1016.7 |
| 20260506005003 | 16 | 331 | 4.8 | 14.5 | 0.00 | 0.05 | 0.05 | 70 | 1016.7 |
| 20260506004546 | 16 | 352 | 3.2 | 16.1 | 0.00 | 0.05 | 0.05 | 70 | 1015.8 |
| 20260506004024 | 16 | 330 | 4.8 | 16.1 | 0.00 | 0.05 | 0.05 | 71 | 1016.6 |
| 20260506003037 | 16 | 309 | 6.4 | 17.7 | 0.00 | 0.05 | 0.05 | 71 | 1015.7 |
| 20260506003003 | 16 | 339 | 6.4 | 17.7 | 0.00 | 0.05 | 0.05 | 72 | 1016.6 |
| 20260506002003 | 16 | 319 | 4.8 | 17.7 | 0.00 | 0.05 | 0.05 | 70 | 1016.5 |
| 20260506001548 | 16 | 218 | 4.8 | 14.5 | 0.00 | 0.05 | 0.05 | 72 | 1015.5 |
| 20260506001003 | 16 | 323 | 6.4 | 16.1 | 0.00 | 0.05 | 0.05 | 71 | 1016.5 |
| 20260506000045 | 16 | 236 | 6.4 | 17.7 | 0.00 | 0.05 | 0.05 | 72 | 1015.5 |
| 20260506000003 | 16 | 332 | 6.4 | 17.7 | 0.00 | 0.05 | 0.05 | 72 | 1016.4 |
| 20260505235003 | 16 | 302 | 4.8 | 19.3 | 0.00 | 0.05 | 0.05 | 73 | 1016.5 |
| 20260505234603 | 16 | 316 | 4.8 | 19.3 | 0.00 | 0.05 | 0.05 | 71 | 1015.6 |
| 20260505234003 | 16 | 318 | 6.4 | 16.1 | 0.00 | 0.05 | 0.05 | 72 | 1016.5 |
| 20260505233044 | 16 | 249 | 6.4 | 16.1 | 0.00 | 0.05 | 0.05 | 71 | 1015.8 |
| 20260505233004 | 16 | 332 | 6.4 | 16.1 | 0.00 | 0.05 | 0.05 | 71 | 1016.5 |
| 20260505232003 | 16 | 332 | 8.0 | 20.9 | 0.00 | 0.05 | 0.05 | 72 | 1016.6 |
| 20260505231539 | 16 | 360 | 9.7 | 20.9 | 0.00 | 0.05 | 0.05 | 71 | 1015.7 |
| 20260505231003 | 16 | 320 | 6.4 | 14.5 | 0.00 | 0.05 | 0.05 | 72 | 1016.6 |
| 20260505230037 | 16 | 274 | 6.4 | 14.5 | 0.00 | 0.05 | 0.05 | 72 | 1015.7 |
| 20260505230004 | 16 | 310 | 4.8 | 14.5 | 0.00 | 0.05 | 0.05 | 72 | 1016.6 |
| 20260505225025 | 16 | 325 | 6.4 | 16.1 | 0.00 | 0.05 | 0.05 | 72 | 1016.5 |
| 20260505224537 | 16 | 271 | 6.4 | 22.5 | 0.00 | 0.05 | 0.05 | 71 | 1015.7 |
| 20260505224004 | 17 | 334 | 6.4 | 22.5 | 0.00 | 0.05 | 0.05 | 70 | 1016.6 |
| 20260505223046 | 17 | 359 | 4.8 | 16.1 | 0.00 | 0.05 | 0.05 | 71 | 1015.7 |
| 20260505223025 | 17 | 327 | 6.4 | 16.1 | 0.00 | 0.05 | 0.05 | 72 | 1016.5 |
| 20260505222003 | 17 | 318 | 6.4 | 19.3 | 0.00 | 0.05 | 0.05 | 69 | 1016.6 |
| 20260505221544 | 16 | 299 | 6.4 | 19.3 | 0.00 | 0.05 | 0.05 | 70 | 1015.9 |
| 20260505221024 | 17 | 316 | 6.4 | 16.1 | 0.00 | 0.05 | 0.05 | 70 | 1016.6 |
| 20260505220048 | 16 | 4 | 3.2 | 11.3 | 0.00 | 0.05 | 0.05 | 69 | 1015.7 |
| 20260505220025 | 17 | 325 | 4.8 | 11.3 | 0.00 | 0.05 | 0.05 | 70 | 1016.6 |
| 20260505215004 | 17 | 304 | 6.4 | 14.5 | 0.00 | 0.05 | 0.05 | 68 | 1016.8 |
| 20260505214601 | 16 | 289 | 6.4 | 14.5 | 0.00 | 0.05 | 0.05 | 70 | 1015.8 |
| 20260505214004 | 16 | 321 | 4.8 | 14.5 | 0.00 | 0.05 | 0.05 | 70 | 1016.8 |
| 20260505213042 | 16 | 250 | 4.8 | 14.5 | 0.00 | 0.05 | 0.05 | 70 | 1015.9 |
| 20260505213003 | 16 | 316 | 4.8 | 12.9 | 0.00 | 0.05 | 0.05 | 71 | 1016.8 |
| 20260505212004 | 16 | 325 | 6.4 | 16.1 | 0.00 | 0.05 | 0.05 | 71 | 1016.9 |
| 20260505211537 | 16 | 286 | 4.8 | 16.1 | 0.00 | 0.05 | 0.05 | 70 | 1016.0 |
| 20260505211004 | 16 | 315 | 3.2 | 11.3 | 0.00 | 0.05 | 0.05 | 72 | 1016.9 |
| 20260505210036 | 16 | 1 | 1.6 | 16.1 | 0.00 | 0.05 | 0.05 | 70 | 1016.0 |
| 20260505210004 | 16 | 316 | 4.8 | 12.9 | 0.00 | 0.05 | 0.05 | 72 | 1016.9 |
| 20260505205004 | 16 | 319 | 4.8 | 16.1 | 0.00 | 0.05 | 0.05 | 71 | 1016.9 |
| 20260505204542 | 16 | 360 | 1.6 | 12.9 | 0.00 | 0.05 | 0.05 | 70 | 1015.9 |
| 20260505204003 | 16 | 324 | 4.8 | 12.9 | 0.00 | 0.05 | 0.05 | 70 | 1016.8 |
| 20260505203047 | 16 | 290 | 4.8 | 14.5 | 0.00 | 0.05 | 0.05 | 70 | 1015.9 |
| 20260505203004 | 16 | 327 | 6.4 | 14.5 | 0.00 | 0.05 | 0.05 | 70 | 1016.8 |
| 20260505202004 | 16 | 323 | 6.4 | 19.3 | 0.00 | 0.05 | 0.05 | 71 | 1017.0 |
| 20260505201539 | 16 | 313 | 4.8 | 19.3 | 0.00 | 0.05 | 0.05 | 70 | 1016.0 |
| 20260505201003 | 16 | 325 | 4.8 | 19.3 | 0.00 | 0.05 | 0.05 | 72 | 1016.9 |
| 20260505200041 | 16 | 360 | 6.4 | 16.1 | 0.00 | 0.05 | 0.05 | 71 | 1016.2 |
| 20260505200003 | 16 | 302 | 6.4 | 16.1 | 0.00 | 0.05 | 0.05 | 72 | 1017.0 |
| 20260505195024 | 16 | 312 | 6.4 | 12.9 | 0.00 | 0.05 | 0.05 | 72 | 1017.1 |
| 20260505194544 | 16 | 339 | 3.2 | 12.9 | 0.00 | 0.05 | 0.05 | 72 | 1016.3 |
| 20260505194003 | 16 | 323 | 4.8 | 9.7 | 0.00 | 0.05 | 0.05 | 74 | 1016.9 |
| 20260505193049 | 15 | 360 | 3.2 | 11.3 | 0.00 | 0.05 | 0.05 | 75 | 1016.3 |
| 20260505193024 | 16 | 298 | 4.8 | 11.3 | 0.00 | 0.05 | 0.05 | 76 | 1017.1 |
| 20260505192004 | 16 | 318 | 4.8 | 19.3 | 0.00 | 0.05 | 0.05 | 74 | 1017.1 |
| 20260505191537 | 15 | 360 | 3.2 | 19.3 | 0.00 | 0.05 | 0.05 | 74 | 1016.2 |
| 20260505191004 | 15 | 321 | 4.8 | 16.1 | 0.00 | 0.05 | 0.05 | 74 | 1017.2 |
| 20260505190044 | 15 | 344 | 4.8 | 16.1 | 0.00 | 0.05 | 0.05 | 76 | 1016.2 |
| 20260505190024 | 15 | 326 | 6.4 | 16.1 | 0.00 | 0.05 | 0.05 | 77 | 1017.1 |
| 20260505185003 | 15 | 327 | 4.8 | 12.9 | 0.00 | 0.05 | 0.05 | 81 | 1017.0 |
| 20260505184539 | 14 | 245 | 1.6 | 11.3 | 0.00 | 0.05 | 0.05 | 83 | 1016.1 |
| 20260505184003 | 14 | 330 | 4.8 | 11.3 | 0.00 | 0.05 | 0.05 | 82 | 1017.1 |
| 20260505183044 | 13 | 354 | 3.2 | 8.0 | 0.00 | 0.05 | 0.05 | 83 | 1016.3 |
| 20260505183003 | 14 | 321 | 3.2 | 8.0 | 0.00 | 0.05 | 0.05 | 83 | 1017.2 |
| 20260505182003 | 13 | 326 | 3.2 | 11.3 | 0.00 | 0.05 | 0.05 | 84 | 1017.1 |
| 20260505181544 | 13 | 321 | 1.6 | 11.3 | 0.00 | 0.05 | 0.05 | 83 | 1016.3 |
| 20260505181003 | 13 | 328 | 3.2 | 11.3 | 0.00 | 0.05 | 0.05 | 85 | 1016.9 |
| 20260505180003 | 13 | 318 | 1.6 | 9.7 | 0.00 | 0.05 | 0.05 | 85 | 1017.0 |
| 20260505175024 | 13 | 326 | 1.6 | 8.0 | 0.00 | 0.05 | 0.05 | 87 | 1016.8 |
| 20260505174556 | 13 | 0 | 3.2 | 11.3 | 0.00 | 0.05 | 0.05 | 86 | 1015.9 |
| 20260505174003 | 13 | 343 | 1.6 | 11.3 | 0.00 | 0.05 | 0.05 | 88 | 1016.7 |
| 20260505173044 | 12 | 310 | 1.6 | 9.7 | 0.00 | 0.05 | 0.05 | 88 | 1015.9 |
| 20260505173024 | 13 | 340 | 1.6 | 9.7 | 0.00 | 0.05 | 0.05 | 88 | 1016.7 |
| 20260505172003 | 13 | 0 | 0.0 | 0.0 | 0.00 | 0.05 | 0.05 | 89 | 1016.7 |
| 20260505171545 | 12 | 0 | 0.0 | 4.8 | 0.00 | 0.05 | 0.05 | 89 | 1015.8 |
| 20260505171003 | 12 | 332 | 0.0 | 6.4 | 0.00 | 0.05 | 0.05 | 88 | 1016.6 |
| 20260505170044 | 12 | 0 | 0.0 | 6.4 | 0.00 | 0.05 | 0.05 | 88 | 1015.8 |
| 20260505170003 | 12 | 353 | 0.0 | 6.4 | 0.00 | 0.05 | 0.05 | 88 | 1016.7 |
| 20260505165003 | 12 | 338 | 1.6 | 11.3 | 0.00 | 0.05 | 0.05 | 87 | 1016.6 |
| 20260505164548 | 12 | 1 | 0.0 | 6.4 | 0.00 | 0.05 | 0.05 | 87 | 1015.7 |
| 20260505164024 | 12 | 343 | 0.0 | 6.4 | 0.00 | 0.05 | 0.05 | 88 | 1016.5 |
| 20260505163041 | 12 | 0 | 0.0 | 9.7 | 0.00 | 0.05 | 0.05 | 87 | 1015.7 |
| 20260505163003 | 12 | 345 | 0.0 | 9.7 | 0.00 | 0.05 | 0.05 | 88 | 1016.5 |
| 20260505162003 | 12 | 347 | 0.0 | 3.2 | 0.00 | 0.05 | 0.05 | 88 | 1016.5 |
| 20260505161538 | 12 | 0 | 0.0 | 11.3 | 0.00 | 0.05 | 0.05 | 88 | 1015.6 |
| 20260505161003 | 12 | 341 | 0.0 | 11.3 | 0.00 | 0.05 | 0.05 | 89 | 1016.3 |
| 20260505153043 | 11 | 0 | 0.0 | 6.4 | 0.00 | 0.05 | 0.05 | 90 | 1015.3 |
| 20260505153003 | 12 | 356 | 0.0 | 6.4 | 0.00 | 0.05 | 0.05 | 90 | 1016.1 |
| 20260505152024 | 11 | 326 | 0.0 | 3.2 | 0.00 | 0.05 | 0.05 | 91 | 1016.0 |
| 20260505151540 | 11 | 0 | 0.0 | 3.2 | 0.00 | 0.05 | 0.05 | 91 | 1015.1 |
| 20260505151003 | 11 | 0 | 0.0 | 0.0 | 0.00 | 0.05 | 0.05 | 92 | 1016.0 |
| 20260505125004 | 11 | 0 | 0.0 | 0.0 | 0.00 | 0.05 | 0.05 | 92 | 1015.5 |
| 20260505124546 | 10 | 0 | 0.0 | 0.0 | 0.00 | 0.05 | 0.05 | 92 | 1014.7 |
| 20260505124003 | 11 | 0 | 0.0 | 0.0 | 0.03 | 0.05 | 0.05 | 92 | 1015.6 |
| 20260505123051 | 10 | 0 | 0.0 | 0.0 | 0.03 | 0.05 | 0.05 | 91 | 1014.7 |
| 20260505123003 | 11 | 0 | 0.0 | 0.0 | 0.03 | 0.05 | 0.05 | 92 | 1015.5 |
| 20260505122004 | 11 | 0 | 0.0 | 0.0 | 0.03 | 0.05 | 0.05 | 92 | 1015.4 |
| 20260505121543 | 10 | 0 | 0.0 | 0.0 | 0.03 | 0.05 | 0.05 | 92 | 1014.5 |
| 20260505121004 | 11 | 0 | 0.0 | 0.0 | 0.03 | 0.05 | 0.05 | 92 | 1015.1 |
| 20260505120041 | 10 | 0 | 0.0 | 0.0 | 0.03 | 0.05 | 0.05 | 92 | 1014.5 |
| 20260505120004 | 11 | 0 | 0.0 | 0.0 | 0.03 | 0.05 | 0.05 | 92 | 1015.4 |
| 20260505115024 | 11 | 0 | 0.0 | 0.0 | 0.03 | 0.05 | 0.05 | 92 | 1015.5 |
| 20260505114537 | 10 | 0 | 0.0 | 0.0 | 0.03 | 0.05 | 0.05 | 92 | 1014.4 |
| 20260505114003 | 11 | 0 | 0.0 | 0.0 | 0.00 | 0.03 | 0.03 | 92 | 1015.5 |
| 20260505113044 | 10 | 0 | 0.0 | 0.0 | 0.00 | 0.03 | 0.03 | 92 | 1014.8 |
| 20260505113003 | 11 | 0 | 0.0 | 0.0 | 0.00 | 0.03 | 0.03 | 92 | 1015.6 |
| 20260505112003 | 11 | 0 | 0.0 | 0.0 | 0.03 | 0.03 | 0.03 | 92 | 1015.7 |
| 20260505111544 | 10 | 0 | 0.0 | 0.0 | 0.03 | 0.03 | 0.03 | 92 | 1014.7 |
| 20260505111024 | 10 | 0 | 0.0 | 0.0 | 0.03 | 0.03 | 0.03 | 92 | 1015.5 |
| 20260505102003 | 10 | 0 | 0.0 | 0.0 | 0.00 | 0.00 | 0.00 | 91 | 1015.4 |
| 20260505101538 | 10 | 0 | 0.0 | 0.0 | 0.00 | 0.00 | 0.00 | 90 | 1014.7 |
| 20260505101003 | 10 | 0 | 0.0 | 0.0 | 0.00 | 0.00 | 0.00 | 91 | 1015.5 |
| 20260505100037 | 10 | 0 | 0.0 | 0.0 | 0.00 | 0.00 | 0.00 | 90 | 1014.7 |
| 20260505100003 | 10 | 0 | 0.0 | 0.0 | 0.00 | 0.00 | 0.00 | 90 | 1015.7 |
| 20260505095003 | 10 | 0 | 0.0 | 0.0 | 0.00 | 0.00 | 0.00 | 90 | 1015.7 |
| 20260505094547 | 10 | 0 | 0.0 | 0.0 | 0.00 | 0.00 | 0.00 | 89 | 1014.9 |
| 20260505094003 | 10 | 0 | 0.0 | 0.0 | 0.00 | 0.00 | 0.00 | 89 | 1015.8 |
| 20260505093047 | 10 | 0 | 0.0 | 0.0 | 0.00 | 0.00 | 0.00 | 89 | 1015.1 |
| 20260505093003 | 10 | 0 | 0.0 | 0.0 | 0.00 | 0.00 | 0.00 | 89 | 1016.1 |
| 20260505092003 | 10 | 0 | 0.0 | 0.0 | 0.00 | 0.00 | 0.00 | 89 | 1015.9 |
| 20260505091559 | 10 | 0 | 0.0 | 0.0 | 0.00 | 0.00 | 0.00 | 88 | 1015.1 |
| 20260505091003 | 10 | 0 | 0.0 | 0.0 | 0.00 | 0.00 | 0.00 | 89 | 1016.1 |
| 20260505090038 | 10 | 0 | 0.0 | 0.0 | 0.00 | 0.00 | 0.00 | 88 | 1015.4 |
| 20260505090003 | 10 | 0 | 0.0 | 0.0 | 0.00 | 0.00 | 0.00 | 88 | 1016.3 |
| 20260505085003 | 11 | 0 | 0.0 | 0.0 | 0.00 | 0.00 | 0.00 | 88 | 1016.3 |
| 20260505084538 | 10 | 0 | 0.0 | 0.0 | 0.00 | 0.00 | 0.00 | 87 | 1015.4 |
| 20260505084003 | 11 | 0 | 0.0 | 0.0 | 0.00 | 0.00 | 0.00 | 87 | 1016.1 |
| 20260505083044 | 10 | 0 | 0.0 | 0.0 | 0.00 | 0.00 | 0.00 | 86 | 1015.4 |
| 20260505083003 | 11 | 0 | 0.0 | 0.0 | 0.00 | 0.00 | 0.00 | 87 | 1016.3 |
| 20260505082003 | 11 | 0 | 0.0 | 0.0 | 0.00 | 0.00 | 0.00 | 86 | 1016.3 |
| 20260505081555 | 10 | 0 | 0.0 | 0.0 | 0.00 | 0.00 | 0.00 | 86 | 1015.6 |
| 20260505081003 | 11 | 0 | 0.0 | 0.0 | 0.00 | 0.00 | 0.00 | 86 | 1016.4 |
| 20260505080051 | 11 | 0 | 0.0 | 0.0 | 0.00 | 0.00 | 0.00 | 85 | 1015.7 |
| 20260505080003 | 11 | 0 | 0.0 | 0.0 | 0.00 | 0.00 | 0.00 | 85 | 1016.6 |
| 20260505075003 | 11 | 0 | 0.0 | 0.0 | 0.00 | 0.00 | 0.00 | 84 | 1016.7 |
| 20260505074542 | 11 | 0 | 0.0 | 0.0 | 0.00 | 0.00 | 0.00 | 83 | 1015.9 |
| 20260505074003 | 11 | 0 | 0.0 | 0.0 | 0.00 | 0.00 | 0.00 | 83 | 1016.6 |
| 20260505073048 | 11 | 0 | 0.0 | 0.0 | 0.00 | 0.00 | 0.00 | 82 | 1015.8 |
| 20260505073003 | 11 | 0 | 0.0 | 0.0 | 0.00 | 0.00 | 0.00 | 82 | 1016.7 |
| 20260505072003 | 11 | 0 | 0.0 | 0.0 | 0.00 | 0.00 | 0.00 | 82 | 1016.5 |
| 20260505071554 | 11 | 0 | 0.0 | 0.0 | 0.00 | 0.00 | 0.00 | 82 | 1015.6 |
| 20260505071003 | 11 | 0 | 0.0 | 0.0 | 0.00 | 0.00 | 0.00 | 82 | 1016.5 |
| 20260505070049 | 11 | 0 | 0.0 | 0.0 | 0.00 | 0.00 | 0.00 | 81 | 1015.6 |
| 20260505070004 | 11 | 0 | 0.0 | 0.0 | 0.00 | 0.00 | 0.00 | 82 | 1016.4 |
| 20260505065003 | 11 | 0 | 0.0 | 0.0 | 0.00 | 0.00 | 0.00 | 82 | 1016.3 |
| 20260505064543 | 11 | 0 | 0.0 | 0.0 | 0.00 | 0.00 | 0.00 | 81 | 1015.5 |
| 20260505064003 | 11 | 0 | 0.0 | 0.0 | 0.00 | 0.00 | 0.00 | 82 | 1016.3 |
| 20260505063103 | 11 | 0 | 0.0 | 0.0 | 0.00 | 0.00 | 0.00 | 81 | 1015.5 |
| 20260505063003 | 11 | 0 | 0.0 | 0.0 | 0.00 | 0.00 | 0.00 | 82 | 1016.3 |
| 20260505062024 | 11 | 0 | 0.0 | 0.0 | 0.00 | 0.00 | 0.00 | 81 | 1016.0 |
| 20260505061605 | 11 | 0 | 0.0 | 0.0 | 0.00 | 0.00 | 0.00 | 81 | 1015.3 |
| 20260505061003 | 11 | 0 | 0.0 | 0.0 | 0.00 | 0.00 | 0.00 | 82 | 1016.0 |
| 20260505060041 | 11 | 0 | 0.0 | 0.0 | 0.00 | 0.00 | 0.00 | 82 | 1015.1 |
| 20260505060003 | 11 | 0 | 0.0 | 0.0 | 0.00 | 0.00 | 0.00 | 82 | 1015.9 |
| 20260505055003 | 11 | 0 | 0.0 | 0.0 | 0.00 | 0.00 | 0.00 | 82 | 1016.0 |
| 20260505054541 | 11 | 0 | 0.0 | 0.0 | 0.00 | 0.00 | 0.00 | 82 | 1015.2 |
| 20260505054003 | 11 | 0 | 0.0 | 0.0 | 0.00 | 0.00 | 0.00 | 82 | 1016.1 |
| 20260505053042 | 11 | 0 | 0.0 | 4.8 | 0.00 | 0.00 | 0.00 | 82 | 1015.5 |
| 20260505053024 | 12 | 301 | 0.0 | 4.8 | 0.00 | 0.00 | 0.00 | 82 | 1016.3 |
| 20260505052024 | 12 | 298 | 0.0 | 8.0 | 0.00 | 0.00 | 0.00 | 81 | 1016.4 |
| 20260505051556 | 12 | 0 | 0.0 | 9.7 | 0.00 | 0.00 | 0.00 | 82 | 1015.6 |
| 20260505051003 | 12 | 331 | 0.0 | 9.7 | 0.00 | 0.00 | 0.00 | 83 | 1016.5 |